EW9119 Weather Reports


time (UTC)temp
F
wind
direction
speed
knots
gust
knots
rain 1hr
in
rain 24hr
in
rain mn
in
humidity
%
barometer
mb
20260831234528 84 142 0.0 0.0 0.00 0.00 0.00 67 1015.0
20260831233036 85 142 0.0 0.0 0.00 0.00 0.00 65 1015.0
20260831231525 86 140 0.0 0.0 0.00 0.00 0.00 63 1015.1
20260831230014 86 140 0.0 0.0 0.00 0.00 0.00 61 1015.3
20260831224511 87 140 0.0 0.0 0.00 0.00 0.00 61 1015.1
20260831223006 88 140 0.0 0.0 0.00 0.00 0.00 60 1015.2
20260831221501 89 106 0.0 0.0 0.00 0.00 0.00 58 1015.3
20260831220058 89 240 0.0 0.0 0.00 0.00 0.00 56 1015.4
20260831214606 90 315 0.0 0.0 0.00 0.00 0.00 50 1015.4
20260831213049 90 317 0.0 0.0 0.00 0.00 0.00 50 1015.4
20260831211544 90 315 0.0 0.0 0.00 0.00 0.00 47 1015.4
20260831210040 90 322 0.0 0.0 0.00 0.00 0.00 48 1015.4
20260831204536 90 321 0.0 0.0 0.00 0.00 0.00 49 1015.6
20260831203031 90 315 0.0 0.0 0.00 0.00 0.00 51 1015.8
20260831201529 90 342 0.0 0.0 0.00 0.00 0.00 52 1015.8
20260831200022 91 313 0.0 0.0 0.00 0.00 0.00 52 1015.8
20260831194518 91 303 0.0 0.0 0.00 0.00 0.00 53 1016.0
20260831193022 90 286 0.0 0.0 0.00 0.00 0.00 55 1016.2
20260831191510 88 292 0.0 0.0 0.00 0.00 0.00 60 1016.2
20260831190010 88 126 0.0 0.0 0.00 0.00 0.00 57 1016.3
20260831184502 88 162 0.0 0.0 0.00 0.00 0.00 56 1016.5
20260831183106 87 139 0.0 0.0 0.00 0.00 0.00 59 1016.6
20260831181552 88 193 0.0 0.0 0.00 0.00 0.00 60 1016.8
20260831180106 90 109 0.0 0.0 0.00 0.00 0.00 56 1016.8
20260831174545 92 276 0.0 0.0 0.00 0.00 0.00 54 1017.1
20260831173038 88 296 0.0 0.0 0.00 0.00 0.00 59 1017.2
20260831171534 90 319 0.0 0.0 0.00 0.00 0.00 59 1017.1
20260831170038 89 106 0.0 0.0 0.00 0.00 0.00 57 1017.2
20260831164526 90 297 0.0 0.0 0.00 0.00 0.00 59 1017.4
20260831163021 89 279 0.0 0.0 0.00 0.00 0.00 61 1017.6
20260831161515 89 308 0.0 0.0 0.00 0.00 0.00 60 1017.7
20260831160014 87 61 0.0 0.0 0.00 0.00 0.00 61 1017.8
20260831154521 88 28 0.0 0.0 0.00 0.00 0.00 62 1017.9
20260831153002 88 332 0.0 0.0 0.00 0.00 0.00 61 1017.9
20260831151610 86 308 0.0 0.9 0.00 0.00 0.00 63 1017.9
20260831150055 86 319 0.0 0.0 0.00 0.00 0.00 64 1018.2
20260831144550 85 317 0.0 0.0 0.00 0.00 0.00 66 1018.2
20260831143047 84 331 0.0 0.9 0.00 0.00 0.00 68 1018.2
20260831141542 83 300 0.0 0.0 0.00 0.00 0.00 68 1018.1
20260831140047 82 284 0.0 0.0 0.00 0.00 0.00 68 1018.1
20260831134537 80 308 0.0 0.0 0.00 0.00 0.00 68 1018.2
20260831133031 79 298 0.0 0.0 0.00 0.00 0.00 65 1018.4
20260831131523 79 325 0.0 0.0 0.00 0.00 0.00 59 1018.3
20260831130019 78 285 0.0 0.0 0.00 0.00 0.00 38 1018.6
20260831124519 75 314 0.0 0.0 0.00 0.00 0.00 1 1018.5
20260831123016 73 360 0.0 0.0 0.00 0.00 0.00 1 1018.3
20260831121505 71 355 0.0 0.0 0.00 0.00 0.00 1 1018.3
20260831120001 69 355 0.0 0.0 0.00 0.00 0.00 1 1018.4
20260831114558 69 355 0.0 0.0 0.00 0.00 0.00 1 1018.4
20260831113052 69 360 0.0 0.0 0.00 0.00 0.00 1 1018.3
20260831111553 69 104 0.0 0.0 0.00 0.00 0.00 1 1018.1
20260831110053 69 104 0.0 0.0 0.00 0.00 0.00 1 1018.1
20260831104601 69 104 0.0 0.0 0.00 0.00 0.00 1 1018.0
20260831103049 69 104 0.0 0.0 0.00 0.00 0.00 1 1017.9
20260831101548 69 104 0.0 0.0 0.00 0.00 0.00 1 1017.7
20260831100055 69 104 0.0 0.0 0.00 0.00 0.00 1 1017.6
20260831094541 69 104 0.0 0.0 0.00 0.00 0.00 1 1017.6
20260831093036 69 104 0.0 0.0 0.00 0.00 0.00 1 1017.6
20260831091530 69 104 0.0 0.0 0.00 0.00 0.00 1 1017.6
20260831090026 69 104 0.0 0.0 0.00 0.00 0.00 1 1017.6
20260831084534 69 104 0.0 0.0 0.00 0.00 0.00 1 1017.5
20260831083035 70 104 0.0 0.0 0.00 0.00 0.00 1 1017.6
20260831081514 70 104 0.0 0.0 0.00 0.00 0.00 1 1017.6
20260831080022 70 104 0.0 0.0 0.00 0.00 0.00 1 1017.5
20260831074510 70 104 0.0 0.0 0.00 0.00 0.00 1 1017.6
20260831073003 70 104 0.0 0.0 0.00 0.00 0.00 1 1017.6
20260831071557 70 104 0.0 0.0 0.00 0.00 0.00 1 1017.8
20260831070105 70 104 0.0 0.0 0.00 0.00 0.00 1 1017.8
20260831064549 70 104 0.0 0.0 0.00 0.00 0.00 1 1017.9
20260831063043 70 104 0.0 0.0 0.00 0.00 0.00 1 1017.9
20260831061540 70 104 0.0 0.0 0.00 0.00 0.00 1 1018.0
20260831060035 70 104 0.0 0.0 0.00 0.00 0.00 1 1017.9
20260831054532 70 104 0.0 0.0 0.00 0.00 0.00 1 1018.0
20260831053027 71 104 0.0 0.0 0.00 0.00 0.00 1 1018.0
20260831051523 71 104 0.0 0.0 0.00 0.00 0.00 1 1018.1
20260831050018 71 104 0.0 0.0 0.00 0.00 0.00 7 1018.1
20260831044520 71 104 0.0 0.0 0.00 0.00 0.00 12 1018.1
20260831043012 72 104 0.0 0.0 0.00 0.00 0.00 22 1018.2
20260831041510 72 104 0.0 0.0 0.00 0.00 0.00 23 1018.2
20260831040009 72 104 0.0 0.0 0.00 0.00 0.00 35 1018.1
20260831034502 73 104 0.0 0.0 0.00 0.00 0.00 37 1018.2
20260831033101 73 104 0.0 0.0 0.00 0.00 0.00 40 1018.3
20260831031554 73 104 0.0 0.0 0.00 0.00 0.00 46 1018.3
20260831030059 74 104 0.0 0.0 0.00 0.00 0.00 51 1018.4
20260831024546 74 104 0.0 0.0 0.00 0.00 0.00 55 1018.4
20260831023041 75 104 0.0 0.0 0.00 0.00 0.00 60 1018.5
20260831021639 75 104 0.0 0.0 0.00 0.00 0.00 63 1018.4
20260831020034 76 104 0.0 0.0 0.00 0.00 0.00 64 1018.3
20260831014532 76 104 0.0 0.0 0.00 0.00 0.00 65 1018.3
20260831013027 76 104 0.0 0.0 0.00 0.00 0.00 65 1018.1
20260831011521 77 104 0.0 0.0 0.00 0.00 0.00 66 1018.0
20260831010017 77 113 0.0 0.0 0.00 0.00 0.00 68 1017.6
20260831004513 77 111 0.0 0.0 0.00 0.00 0.00 69 1017.5
20260831003008 78 111 0.0 0.0 0.00 0.00 0.00 70 1017.4
20260831001506 79 111 0.0 0.0 0.00 0.00 0.00 70 1017.3
20260831000003 80 111 0.0 0.0 0.00 0.00 0.00 70 1017.4